Starlink 32661

operational
NORAD ID: 62899 Int'l Des: 2025-024 Owner: SPXS Country: US Constellation: starlink
LEOCIRCULAR

Starlink 32661について

説明を読み込み中...

リアルタイム位置

3D地球を読み込み中...

次回通過

高度履歴

Altitude vs Time

uPlot chart will show altitude changes over time

軌道要素

1 62899U 25024W 25259.61162834 .00027380 00000-0 10008-2 0 9992
2 62899 42.9963 228.3963 0000390 296.2184 63.8627 15.27578083 35642
Epoch: Sep 16, 2025 • Age: 10 hours

現在のステータス

高度 483.6 km
速度 7.63 km/s
衛星直下点 28.76°N, 3.74°E
打ち上げ日 Feb 4, 2025
運用期間 0.6 years
タイプ internet

技術仕様

分類 Payload
質量 730.00 kg
乾燥質量 700.00 kg
総質量 730.00 kg
長さ 0.30 m
直径 4.10 m
スパン 29.00 m
形状 Box + pan
製造者 SPXS
バスタイプ Starlink V2M
フェーズステータス In Orbit
所有者/国 SPXS/US

大規模コンステレーション

Loading constellations...